WXM80 ListenWXM80 Stop

You find our weather info also at:

UK Metoffice

WeatherCloud

Weather Underground

Northeastern Weather Network

AWEKAS

Citizen Weather Observer Program (CWOP)

HAMweather, WeatherForYou, PWS Weather


Weather Underground History page Text

Daily Summary for August 1, 2017 Units:  English    Metric   Both
« Previous Day
Next Day »
Daily Weekly Monthly Yearly Custom
  High: Low: Average:
Temperature: 94.3 °F 66.0 °F 79.3 °F
Dew Point: 71.9 °F 61.5 °F 66.3 °F
Humidity: 96 % 36 % 68 %
Wind Speed: 4.8 mph 0.0 mph 0.7 mph
Wind Gust: 6.9 mph - -
Wind:- - SSW
Pressure: 30.01 in 29.94 in -
Precipitation: 0.00 in    
Historical Graphs
 
 
Tabular Data for August 1, 2017
Time Temperature Dew Point Pressure Wind Wind Speed Wind Gust Humidity Rainfall Rate (Hourly)
00:00 72.4 °F 63.3 °F 29.97 in Calm     73 % 0.00 in
00:05 72.4 °F 63.3 °F 29.96 in West 0.3 mph 1.2 mph 73 % 0.00 in
00:10 72.3 °F 63.2 °F 29.97 in West 0.2 mph 2.0 mph 73 % 0.00 in
00:15 72.3 °F 63.5 °F 29.97 in Calm   2.3 mph 74 % 0.00 in
00:20 72.2 °F 63.4 °F 29.96 in WSW 0.2 mph 1.2 mph 74 % 0.00 in
00:25 72.2 °F 63.4 °F 29.96 in WSW 0.3 mph 1.2 mph 74 % 0.00 in
00:30 72.1 °F 63.7 °F 29.96 in WSW 0.7 mph 3.5 mph 75 % 0.00 in
00:35 72.1 °F 63.7 °F 29.96 in WSW 0.1 mph 1.2 mph 75 % 0.00 in
00:40 72.0 °F 63.6 °F 29.96 in Calm   1.2 mph 75 % 0.00 in
00:45 71.9 °F 63.5 °F 29.96 in WSW 0.7 mph 2.3 mph 75 % 0.00 in
00:50 71.9 °F 63.5 °F 29.96 in SW 1.2 mph 3.5 mph 75 % 0.00 in
00:55 71.8 °F 63.8 °F 29.96 in SW 0.4 mph 2.3 mph 76 % 0.00 in
01:00 71.8 °F 63.8 °F 29.96 in Calm     76 % 0.00 in
01:05 71.8 °F 63.8 °F 29.96 in Calm     76 % 0.00 in
01:10 71.7 °F 63.7 °F 29.96 in Calm   1.2 mph 76 % 0.00 in
01:15 71.7 °F 64.1 °F 29.96 in Calm   1.2 mph 77 % 0.00 in
01:20 71.7 °F 64.1 °F 29.96 in WSW 2.3 mph 4.0 mph 77 % 0.00 in
01:25 71.7 °F 64.5 °F 29.95 in SW 1.7 mph 2.3 mph 78 % 0.00 in
01:30 71.7 °F 64.8 °F 29.96 in SW 0.4 mph 1.2 mph 79 % 0.00 in
01:36 71.6 °F 64.7 °F 29.96 in SW 0.1 mph 1.2 mph 79 % 0.00 in
01:41 71.6 °F 64.7 °F 29.96 in Calm   2.0 mph 79 % 0.00 in
01:46 71.6 °F 64.7 °F 29.96 in Calm   3.0 mph 79 % 0.00 in
01:51 71.6 °F 64.7 °F 29.96 in Calm     79 % 0.00 in
01:56 71.5 °F 65.0 °F 29.96 in Calm     80 % 0.00 in
02:01 71.3 °F 64.8 °F 29.96 in Calm     80 % 0.00 in
02:06 71.3 °F 64.8 °F 29.96 in Calm     80 % 0.00 in
02:11 71.1 °F 64.6 °F 29.96 in Calm     80 % 0.00 in
02:16 71.0 °F 64.2 °F 29.96 in Calm     79 % 0.00 in
02:21 70.8 °F 64.0 °F 29.96 in Calm     79 % 0.00 in
02:26 70.7 °F 64.2 °F 29.96 in Calm     80 % 0.00 in
02:28 70.7 °F 64.2 °F 29.96 in Calm     80 % 0.00 in
02:33 70.5 °F 64.0 °F 29.96 in Calm     80 % 0.00 in
02:38 70.3 °F 64.2 °F 29.96 in Calm     81 % 0.00 in
02:43 70.2 °F 64.1 °F 29.96 in Calm     81 % 0.00 in
02:48 70.1 °F 64.3 °F 29.96 in WSW 1.3 mph 3.5 mph 82 % 0.00 in
02:53 70.0 °F 64.6 °F 29.96 in West 0.2 mph 2.3 mph 83 % 0.00 in
02:58 69.8 °F 64.4 °F 29.96 in Calm     83 % 0.00 in
03:04 69.7 °F 64.6 °F 29.96 in WSW 1.2 mph 2.3 mph 84 % 0.00 in
03:09 69.6 °F 64.5 °F 29.96 in Calm     84 % 0.00 in
03:14 69.5 °F 64.5 °F 29.96 in Calm   1.2 mph 84 % 0.00 in
03:19 69.4 °F 64.7 °F 29.97 in Calm     85 % 0.00 in
03:22 69.3 °F 64.6 °F 29.96 in Calm     85 % 0.00 in
03:27 69.2 °F 64.8 °F 29.97 in Calm     86 % 0.00 in
03:32 69.1 °F 64.7 °F 29.97 in Calm     86 % 0.00 in
03:37 68.9 °F 64.5 °F 29.96 in Calm     86 % 0.00 in
03:42 68.8 °F 64.4 °F 29.96 in Calm     86 % 0.00 in
03:47 68.7 °F 64.3 °F 29.96 in Calm     86 % 0.00 in
03:52 68.6 °F 64.2 °F 29.96 in Calm     86 % 0.00 in
03:57 68.5 °F 64.5 °F 29.96 in Calm     87 % 0.00 in
04:02 68.3 °F 64.3 °F 29.96 in Calm     87 % 0.00 in
04:07 68.2 °F 64.2 °F 29.96 in Calm     87 % 0.00 in
04:13 68.1 °F 64.1 °F 29.96 in Calm     87 % 0.00 in
04:18 68.0 °F 64.0 °F 29.96 in Calm     87 % 0.00 in
04:23 67.9 °F 64.2 °F 29.96 in Calm     88 % 0.00 in
04:28 67.8 °F 64.1 °F 29.97 in Calm     88 % 0.00 in
04:33 67.7 °F 64.0 °F 29.97 in Calm     88 % 0.00 in
04:38 67.6 °F 64.2 °F 29.97 in Calm     89 % 0.00 in
04:43 67.5 °F 63.8 °F 29.97 in Calm     88 % 0.00 in
04:48 67.4 °F 64.0 °F 29.97 in Calm     89 % 0.00 in
04:53 67.3 °F 63.9 °F 29.97 in Calm     89 % 0.00 in
04:58 67.2 °F 63.8 °F 29.97 in Calm     89 % 0.00 in
05:03 67.1 °F 63.7 °F 29.97 in Calm     89 % 0.00 in
05:08 67.0 °F 64.0 °F 29.98 in Calm     90 % 0.00 in
05:13 66.8 °F 63.5 °F 29.97 in Calm     89 % 0.00 in
05:18 66.8 °F 63.8 °F 29.97 in Calm     90 % 0.00 in
05:23 66.7 °F 63.7 °F 29.97 in Calm     90 % 0.00 in
05:28 66.7 °F 63.7 °F 29.97 in Calm     90 % 0.00 in
05:33 66.6 °F 63.6 °F 29.97 in Calm     90 % 0.00 in
05:39 66.5 °F 63.5 °F 29.97 in Calm     90 % 0.00 in
05:44 66.4 °F 63.4 °F 29.97 in Calm     90 % 0.00 in
05:49 66.3 °F 63.3 °F 29.97 in Calm     90 % 0.00 in
05:54 66.2 °F 63.2 °F 29.97 in Calm     90 % 0.00 in
05:59 66.2 °F 63.2 °F 29.97 in Calm     90 % 0.00 in
06:04 66.1 °F 63.1 °F 29.98 in Calm     90 % 0.00 in
06:09 66.1 °F 63.1 °F 29.98 in Calm     90 % 0.00 in
06:14 66.0 °F 63.3 °F 29.98 in Calm     91 % 0.00 in
06:19 66.0 °F 63.3 °F 29.98 in Calm     91 % 0.00 in
06:24 66.0 °F 63.3 °F 29.98 in Calm     91 % 0.00 in
06:25 66.0 °F 63.3 °F 29.98 in Calm     91 % 0.00 in
06:30 66.0 °F 63.6 °F 29.98 in Calm     92 % 0.00 in
06:32 66.1 °F 63.7 °F 29.99 in Calm     92 % 0.00 in
06:37 66.2 °F 64.1 °F 29.99 in Calm     93 % 0.00 in
06:42 66.3 °F 64.2 °F 29.98 in Calm     93 % 0.00 in
06:47 66.5 °F 64.4 °F 29.99 in Calm     93 % 0.00 in
06:52 66.7 °F 64.9 °F 29.99 in Calm     94 % 0.00 in
06:57 67.1 °F 65.6 °F 29.99 in Calm     95 % 0.00 in
07:02 67.4 °F 65.9 °F 29.99 in Calm     95 % 0.00 in
07:07 67.8 °F 66.3 °F 29.99 in Calm   1.2 mph 95 % 0.00 in
07:12 68.3 °F 67.1 °F 29.99 in Calm   1.2 mph 96 % 0.00 in
07:17 68.8 °F 67.6 °F 29.99 in NW 0.5 mph 2.0 mph 96 % 0.00 in
07:22 69.3 °F 68.1 °F 29.99 in NW 1.1 mph 3.5 mph 96 % 0.00 in
07:27 69.8 °F 68.6 °F 29.99 in WNW 0.5 mph 1.2 mph 96 % 0.00 in
07:32 70.1 °F 68.9 °F 29.99 in NW 0.9 mph 3.0 mph 96 % 0.00 in
07:37 70.4 °F 69.2 °F 29.99 in NW 0.1 mph 1.2 mph 96 % 0.00 in
07:42 70.6 °F 69.1 °F 29.99 in NW 0.3 mph 2.3 mph 95 % 0.00 in
07:47 70.8 °F 69.3 °F 30.00 in NW 0.1 mph 1.2 mph 95 % 0.00 in
07:52 71.0 °F 69.2 °F 30.00 in NW 1.4 mph 3.0 mph 94 % 0.00 in
07:57 71.1 °F 69.3 °F 30.00 in Calm     94 % 0.00 in
08:02 71.3 °F 69.2 °F 30.00 in West 0.3 mph 1.0 mph 93 % 0.00 in
08:07 71.4 °F 69.0 °F 30.00 in Calm   2.3 mph 92 % 0.00 in
08:12 71.5 °F 69.1 °F 30.00 in Calm   1.2 mph 92 % 0.00 in
08:17 71.6 °F 68.8 °F 30.00 in NW 0.4 mph 2.3 mph 91 % 0.00 in
08:22 71.6 °F 68.5 °F 30.00 in WNW 0.1 mph 2.3 mph 90 % 0.00 in
08:27 71.8 °F 68.4 °F 30.00 in WNW 0.4 mph 3.5 mph 89 % 0.00 in
08:33 71.9 °F 68.5 °F 30.00 in WNW 0.5 mph 1.2 mph 89 % 0.00 in
08:38 72.1 °F 68.0 °F 30.00 in NNE 0.4 mph 2.3 mph 87 % 0.00 in
08:43 72.4 °F 68.3 °F 30.00 in NE 0.8 mph 1.2 mph 87 % 0.00 in
08:48 72.6 °F 68.5 °F 30.00 in WNW 0.2 mph 2.3 mph 87 % 0.00 in
08:53 72.8 °F 68.0 °F 30.00 in NW 0.3 mph 2.3 mph 85 % 0.00 in
08:58 72.9 °F 67.8 °F 30.00 in WNW 0.2 mph 1.2 mph 84 % 0.00 in
09:03 73.2 °F 68.1 °F 30.00 in Calm   1.2 mph 84 % 0.00 in
09:08 73.4 °F 68.3 °F 30.00 in NW 0.8 mph 3.5 mph 84 % 0.00 in
09:13 73.6 °F 68.1 °F 30.00 in North 1.1 mph 3.5 mph 83 % 0.00 in
09:18 73.8 °F 67.6 °F 30.00 in WNW 1.4 mph 3.5 mph 81 % 0.00 in
09:23 74.0 °F 67.4 °F 30.00 in WNW 1.2 mph 3.5 mph 80 % 0.00 in
09:28 74.2 °F 67.6 °F 30.00 in WNW 0.3 mph 2.3 mph 80 % 0.00 in
09:33 74.4 °F 67.5 °F 30.00 in NW 1.3 mph 3.5 mph 79 % 0.00 in
09:38 74.6 °F 67.3 °F 30.00 in NNW 0.4 mph 2.0 mph 78 % 0.00 in
09:43 74.8 °F 66.7 °F 30.00 in NNW 3.1 mph 3.5 mph 76 % 0.00 in
09:48 75.0 °F 66.9 °F 30.00 in WNW 2.5 mph 3.5 mph 76 % 0.00 in
09:53 75.3 °F 67.2 °F 30.01 in WNW 2.6 mph 4.6 mph 76 % 0.00 in
09:58 75.7 °F 68.0 °F 30.01 in NNW 0.1 mph 3.5 mph 77 % 0.00 in
10:03 76.1 °F 68.0 °F 30.00 in WNW 0.2 mph 2.3 mph 76 % 0.00 in
10:08 76.9 °F 68.4 °F 30.01 in NW 1.6 mph 3.5 mph 75 % 0.00 in
10:14 77.8 °F 69.6 °F 30.01 in NNE 1.7 mph 3.5 mph 76 % 0.00 in
10:18 78.6 °F 68.4 °F 30.01 in North 0.4 mph 2.3 mph 71 % 0.00 in
10:23 79.8 °F 68.7 °F 30.01 in NNE 2.9 mph 4.6 mph 69 % 0.00 in
10:29 80.7 °F 68.7 °F 30.01 in NNW 2.5 mph 2.5 mph 67 % 0.00 in
10:34 81.2 °F 68.3 °F 30.01 in NNE 2.9 mph 3.5 mph 65 % 0.00 in
10:39 82.3 °F 69.4 °F 30.01 in North 2.7 mph 3.5 mph 65 % 0.00 in
10:44 83.2 °F 69.3 °F 30.00 in NW 0.6 mph 2.3 mph 63 % 0.00 in
10:49 84.1 °F 69.7 °F 30.01 in NNE 0.8 mph 4.0 mph 62 % 0.00 in
10:54 84.7 °F 68.3 °F 30.00 in ENE 0.8 mph 3.5 mph 58 % 0.00 in
10:59 85.2 °F 68.8 °F 30.00 in NNE 1.3 mph 2.3 mph 58 % 0.00 in
11:04 85.7 °F 68.2 °F 30.00 in Calm   1.2 mph 56 % 0.00 in
11:09 86.1 °F 67.5 °F 30.00 in North 1.6 mph 3.5 mph 54 % 0.00 in
11:11 86.2 °F 68.1 °F 30.00 in North 1.5 mph 3.5 mph 55 % 0.00 in
11:16 86.6 °F 68.0 °F 30.00 in North 2.8 mph 4.6 mph 54 % 0.00 in
11:21 86.6 °F 67.4 °F 30.00 in North 4.8 mph 5.8 mph 53 % 0.00 in
11:26 86.7 °F 69.1 °F 30.00 in NE 3.0 mph 4.6 mph 56 % 0.00 in
11:31 86.9 °F 68.3 °F 30.00 in NNE 3.8 mph 5.8 mph 54 % 0.00 in
11:36 87.1 °F 68.4 °F 30.00 in North 3.0 mph 4.6 mph 54 % 0.00 in
11:41 87.5 °F 69.3 °F 30.00 in NNE 1.7 mph 3.5 mph 55 % 0.00 in
11:46 87.9 °F 68.6 °F 30.00 in NNE 3.0 mph 4.6 mph 53 % 0.00 in
11:51 88.0 °F 68.7 °F 30.00 in NNE 1.7 mph 3.5 mph 53 % 0.00 in
11:56 88.0 °F 69.3 °F 30.00 in NNE 3.9 mph 4.6 mph 54 % 0.00 in
12:01 87.8 °F 69.6 °F 30.00 in NNE 2.0 mph 4.6 mph 55 % 0.00 in
12:06 88.0 °F 69.3 °F 29.99 in ENE 0.7 mph 3.5 mph 54 % 0.00 in
12:09 88.1 °F 68.8 °F 30.00 in ENE 2.2 mph 4.6 mph 53 % 0.00 in
12:14 88.2 °F 68.9 °F 30.00 in NE 1.4 mph 3.5 mph 53 % 0.00 in
12:19 88.3 °F 69.5 °F 29.99 in ENE 2.0 mph 4.6 mph 54 % 0.00 in
12:24 88.4 °F 68.5 °F 29.99 in NE 0.3 mph 2.3 mph 52 % 0.00 in
12:29 88.4 °F 69.6 °F 29.99 in North 1.9 mph 3.5 mph 54 % 0.00 in
12:34 88.4 °F 69.1 °F 29.99 in North 2.2 mph 3.5 mph 53 % 0.00 in
12:39 88.5 °F 69.2 °F 29.99 in NNE 3.5 mph 5.8 mph 53 % 0.00 in
12:44 88.6 °F 69.8 °F 29.99 in NE 0.7 mph 3.5 mph 54 % 0.00 in
12:49 89.1 °F 69.2 °F 29.99 in NNE 2.0 mph 4.0 mph 52 % 0.00 in
12:54 89.3 °F 69.4 °F 29.99 in NNE 0.7 mph 3.5 mph 52 % 0.00 in
12:59 89.6 °F 70.2 °F 29.99 in North 1.5 mph 3.5 mph 53 % 0.00 in
13:05 89.8 °F 70.4 °F 29.99 in North 0.7 mph 3.5 mph 53 % 0.00 in
13:10 90.1 °F 70.1 °F 29.99 in North 0.2 mph 1.2 mph 52 % 0.00 in
13:15 90.4 °F 70.4 °F 29.99 in NNE 1.1 mph 3.5 mph 52 % 0.00 in
13:20 90.6 °F 70.0 °F 29.99 in NW 1.8 mph 3.5 mph 51 % 0.00 in
13:25 90.8 °F 70.2 °F 29.99 in North 2.8 mph 4.0 mph 51 % 0.00 in
13:30 91.0 °F 69.2 °F 29.98 in NNE 0.5 mph 3.5 mph 49 % 0.00 in
13:35 91.2 °F 69.4 °F 29.98 in NE 0.5 mph 3.5 mph 49 % 0.00 in
13:37 91.2 °F 69.4 °F 29.98 in NNE 2.6 mph 5.0 mph 49 % 0.00 in
13:42 91.2 °F 68.8 °F 29.98 in North 1.3 mph 3.5 mph 48 % 0.00 in
13:47 91.5 °F 70.2 °F 29.98 in North 1.3 mph 3.5 mph 50 % 0.00 in
13:52 91.7 °F 70.4 °F 29.98 in NW 1.1 mph 3.0 mph 50 % 0.00 in
13:57 92.0 °F 71.9 °F 29.98 in NW 0.4 mph 1.2 mph 52 % 0.00 in
14:02 92.2 °F 69.7 °F 29.98 in NNE 0.5 mph 3.5 mph 48 % 0.00 in
14:07 92.3 °F 70.4 °F 29.98 in NNW 1.9 mph 3.5 mph 49 % 0.00 in
14:12 92.6 °F 69.4 °F 29.98 in North 2.1 mph 3.5 mph 47 % 0.00 in
14:17 92.7 °F 67.6 °F 29.98 in NNW 0.3 mph 3.5 mph 44 % 0.00 in
14:22 92.9 °F 66.4 °F 29.98 in NW 1.5 mph 3.5 mph 42 % 0.00 in
14:27 93.2 °F 66.7 °F 29.97 in NW 1.4 mph 3.5 mph 42 % 0.00 in
14:33 93.5 °F 67.0 °F 29.97 in NW 0.2 mph 1.2 mph 42 % 0.00 in
14:38 93.8 °F 65.1 °F 29.97 in NW 0.1 mph 2.3 mph 39 % 0.00 in
14:43 94.0 °F 63.8 °F 29.97 in NW 1.0 mph 3.5 mph 37 % 0.00 in
14:48 94.1 °F 64.6 °F 29.97 in NNW 0.7 mph 2.3 mph 38 % 0.00 in
14:53 94.3 °F 64.8 °F 29.97 in North 3.2 mph 4.6 mph 38 % 0.00 in
14:58 94.3 °F 64.8 °F 29.96 in North 0.8 mph 2.3 mph 38 % 0.00 in
15:03 94.3 °F 64.8 °F 29.96 in NNE 2.1 mph 4.0 mph 38 % 0.00 in
15:08 94.1 °F 66.1 °F 29.96 in North 2.4 mph 3.5 mph 40 % 0.00 in
15:13 93.9 °F 65.9 °F 29.96 in North 1.9 mph 3.5 mph 40 % 0.00 in
15:18 93.8 °F 67.2 °F 29.96 in North 2.3 mph 3.5 mph 42 % 0.00 in
15:23 93.5 °F 65.6 °F 29.96 in NNE 1.9 mph 3.5 mph 40 % 0.00 in
15:28 93.5 °F 67.0 °F 29.96 in NNW 0.1 mph 2.3 mph 42 % 0.00 in
15:33 93.6 °F 65.6 °F 29.96 in NW 2.6 mph 4.0 mph 40 % 0.00 in
15:35 93.7 °F 65.0 °F 29.96 in NNW 1.1 mph 3.5 mph 39 % 0.00 in
15:41 93.8 °F 66.5 °F 29.96 in NW 1.0 mph 4.0 mph 41 % 0.00 in
15:45 93.6 °F 64.9 °F 29.96 in NE 4.0 mph 4.6 mph 39 % 0.00 in
15:51 93.2 °F 67.4 °F 29.96 in North 4.0 mph 4.6 mph 43 % 0.00 in
15:57 93.1 °F 65.9 °F 29.95 in North 0.9 mph 3.5 mph 41 % 0.00 in
16:02 93.1 °F 63.7 °F 29.96 in North 1.7 mph 3.5 mph 38 % 0.00 in
16:07 92.9 °F 65.7 °F 29.96 in NNE 2.9 mph 4.6 mph 41 % 0.00 in
16:09 92.8 °F 67.0 °F 29.95 in NNE 3.2 mph 4.6 mph 43 % 0.00 in
16:11 92.6 °F 66.8 °F 29.95 in NNE 3.6 mph 6.9 mph 43 % 0.00 in
16:16 92.2 °F 65.8 °F 29.95 in NNE 3.2 mph 4.6 mph 42 % 0.00 in
16:21 92.1 °F 65.7 °F 29.95 in NW 1.6 mph 4.6 mph 42 % 0.00 in
16:26 92.1 °F 65.7 °F 29.95 in North 1.7 mph 3.5 mph 42 % 0.00 in
16:27 92.1 °F 65.7 °F 29.95 in North 1.4 mph 3.5 mph 42 % 0.00 in
16:32 92.3 °F 65.9 °F 29.95 in North 0.5 mph 3.5 mph 42 % 0.00 in
16:37 92.4 °F 66.0 °F 29.95 in North 1.0 mph 3.5 mph 42 % 0.00 in
16:42 92.7 °F 64.8 °F 29.95 in North 1.3 mph 3.5 mph 40 % 0.00 in
16:47 92.6 °F 64.0 °F 29.95 in NNE 1.1 mph 3.5 mph 39 % 0.00 in
16:52 92.7 °F 64.8 °F 29.95 in WNW 1.2 mph 4.0 mph 40 % 0.00 in
17:02 92.9 °F 62.0 °F 29.95 in WSW 0.1 mph 1.2 mph 36 % 0.00 in
17:07 92.8 °F 62.7 °F 29.95 in WSW 0.5 mph 2.3 mph 37 % 0.00 in
17:12 92.7 °F 61.8 °F 29.95 in West 0.5 mph 1.2 mph 36 % 0.00 in
17:14 92.6 °F 61.7 °F 29.95 in West 0.2 mph 1.2 mph 36 % 0.00 in
17:19 92.5 °F 62.4 °F 29.95 in Calm   2.3 mph 37 % 0.00 in
17:24 92.4 °F 62.4 °F 29.95 in West 0.4 mph 1.2 mph 37 % 0.00 in
17:29 92.3 °F 61.5 °F 29.95 in West 0.1 mph 1.2 mph 36 % 0.00 in
17:34 92.1 °F 62.8 °F 29.94 in West 0.1 mph 1.2 mph 38 % 0.00 in
17:39 91.9 °F 62.7 °F 29.94 in West 1.0 mph 3.5 mph 38 % 0.00 in
17:44 91.7 °F 64.7 °F 29.94 in West 1.2 mph 1.2 mph 41 % 0.00 in
17:49 91.5 °F 63.8 °F 29.94 in West 0.9 mph 3.5 mph 40 % 0.00 in
17:54 91.2 °F 63.5 °F 29.94 in Calm   1.0 mph 40 % 0.00 in
17:59 91.0 °F 64.7 °F 29.94 in Calm     42 % 0.00 in
18:04 90.8 °F 64.5 °F 29.94 in Calm   2.3 mph 42 % 0.00 in
18:09 90.5 °F 65.6 °F 29.94 in West 0.3 mph 1.2 mph 44 % 0.00 in
18:14 90.2 °F 66.0 °F 29.94 in Calm     45 % 0.00 in
18:19 89.9 °F 65.7 °F 29.94 in Calm     45 % 0.00 in
18:25 89.5 °F 64.7 °F 29.94 in Calm     44 % 0.00 in
18:30 89.3 °F 64.5 °F 29.94 in Calm   1.2 mph 44 % 0.00 in
18:35 89.1 °F 66.2 °F 29.95 in SE 1.9 mph 3.0 mph 47 % 0.00 in
18:40 88.6 °F 67.0 °F 29.94 in SE 2.5 mph 5.8 mph 49 % 0.00 in
18:45 87.9 °F 67.5 °F 29.95 in SSE 2.3 mph 5.8 mph 51 % 0.00 in
18:50 87.5 °F 67.7 °F 29.95 in Calm   1.2 mph 52 % 0.00 in
18:55 87.1 °F 67.3 °F 29.95 in Calm   1.2 mph 52 % 0.00 in
19:00 86.7 °F 67.0 °F 29.95 in SE 2.1 mph 4.6 mph 52 % 0.00 in
19:05 86.2 °F 67.1 °F 29.95 in SE 0.3 mph 1.0 mph 53 % 0.00 in
19:07 86.0 °F 67.4 °F 29.95 in Calm     54 % 0.00 in
19:12 85.5 °F 67.5 °F 29.95 in SSE 0.2 mph 1.2 mph 55 % 0.00 in
19:17 85.1 °F 67.6 °F 29.95 in SSE 0.1 mph 1.2 mph 56 % 0.00 in
19:22 84.8 °F 67.4 °F 29.95 in Calm   1.2 mph 56 % 0.00 in
19:27 84.5 °F 67.6 °F 29.96 in SSE 0.2 mph 1.2 mph 57 % 0.00 in
19:32 84.3 °F 67.4 °F 29.96 in Calm     57 % 0.00 in
19:37 84.1 °F 68.7 °F 29.96 in SE 0.1 mph 3.5 mph 60 % 0.00 in
19:42 83.8 °F 68.9 °F 29.96 in SE 1.0 mph 4.0 mph 61 % 0.00 in
19:47 83.5 °F 69.1 °F 29.96 in SSE 0.2 mph 1.2 mph 62 % 0.00 in
19:52 83.1 °F 68.7 °F 29.97 in SW 0.5 mph 2.0 mph 62 % 0.00 in
19:57 82.5 °F 68.6 °F 29.97 in SSW 0.1 mph 3.5 mph 63 % 0.00 in
20:02 82.2 °F 68.8 °F 29.97 in Calm     64 % 0.00 in
20:07 81.9 °F 69.0 °F 29.97 in SSW 0.4 mph 2.3 mph 65 % 0.00 in
20:12 81.6 °F 68.7 °F 29.97 in SSW 0.1 mph 1.2 mph 65 % 0.00 in
20:17 81.3 °F 68.4 °F 29.97 in SSW 0.1 mph 1.2 mph 65 % 0.00 in
20:22 81.0 °F 68.6 °F 29.97 in Calm   1.2 mph 66 % 0.00 in
20:27 80.7 °F 68.3 °F 29.97 in SW 0.3 mph 1.2 mph 66 % 0.00 in
20:32 80.4 °F 68.0 °F 29.97 in Calm   1.2 mph 66 % 0.00 in
20:38 80.1 °F 68.2 °F 29.97 in Calm   1.2 mph 67 % 0.00 in
20:43 79.8 °F 67.9 °F 29.97 in SW 0.1 mph 2.3 mph 67 % 0.00 in
20:48 79.6 °F 67.7 °F 29.97 in SW 0.1 mph   67 % 0.00 in
20:53 79.4 °F 67.9 °F 29.97 in SW 0.4 mph 2.3 mph 68 % 0.00 in
20:58 79.1 °F 67.6 °F 29.97 in Calm     68 % 0.00 in
21:03 78.8 °F 67.3 °F 29.97 in Calm   2.3 mph 68 % 0.00 in
21:08 78.6 °F 67.6 °F 29.98 in SW 0.3 mph 2.3 mph 69 % 0.00 in
21:13 78.3 °F 67.3 °F 29.98 in SW 0.1 mph 1.2 mph 69 % 0.00 in
21:18 78.1 °F 67.5 °F 29.98 in SW 0.3 mph 1.2 mph 70 % 0.00 in
21:23 78.0 °F 67.4 °F 29.98 in SW 0.2 mph 2.3 mph 70 % 0.00 in
21:28 77.8 °F 67.2 °F 29.98 in SSW 0.4 mph 2.3 mph 70 % 0.00 in
21:34 77.6 °F 67.0 °F 29.98 in Calm   1.2 mph 70 % 0.00 in
21:39 77.5 °F 66.5 °F 29.98 in Calm   2.3 mph 69 % 0.00 in
21:44 77.3 °F 66.3 °F 29.98 in SSW 0.2 mph 1.2 mph 69 % 0.00 in
21:49 77.1 °F 66.1 °F 29.98 in SSW 0.2 mph 2.3 mph 69 % 0.00 in
21:54 77.0 °F 66.0 °F 29.98 in SSW 0.3 mph 2.3 mph 69 % 0.00 in
21:59 76.8 °F 66.3 °F 29.98 in South 0.3 mph 1.2 mph 70 % 0.00 in
22:04 76.8 °F 66.3 °F 29.98 in South 0.5 mph 2.3 mph 70 % 0.00 in
22:09 76.6 °F 66.1 °F 29.98 in South 0.2 mph 1.2 mph 70 % 0.00 in
22:14 76.5 °F 66.0 °F 29.98 in South 0.2 mph 1.2 mph 70 % 0.00 in
22:19 76.5 °F 66.0 °F 29.99 in Calm   1.2 mph 70 % 0.00 in
22:24 76.4 °F 65.9 °F 29.98 in SW 0.9 mph 2.3 mph 70 % 0.00 in
22:29 76.3 °F 65.8 °F 29.99 in SW 0.6 mph 2.3 mph 70 % 0.00 in
22:34 76.2 °F 66.1 °F 29.99 in Calm   1.2 mph 71 % 0.00 in
22:39 76.2 °F 66.1 °F 29.98 in SSW 0.2 mph 1.2 mph 71 % 0.00 in
22:44 76.2 °F 66.1 °F 29.99 in Calm   1.2 mph 71 % 0.00 in
22:49 76.2 °F 66.1 °F 29.98 in SSW 0.5 mph 1.2 mph 71 % 0.00 in
22:54 76.1 °F 66.0 °F 29.99 in SSW 0.2 mph 3.5 mph 71 % 0.00 in
22:59 76.0 °F 65.9 °F 29.99 in SSW 0.5 mph 3.5 mph 71 % 0.00 in
23:04 75.9 °F 65.8 °F 29.99 in WNW 0.5 mph 2.3 mph 71 % 0.00 in
23:09 75.8 °F 65.7 °F 29.99 in West 0.2 mph 1.2 mph 71 % 0.00 in
23:14 75.8 °F 65.7 °F 29.99 in SW 0.5 mph 3.5 mph 71 % 0.00 in
23:19 75.7 °F 66.0 °F 29.99 in SW 0.2 mph 1.2 mph 72 % 0.00 in
23:24 75.7 °F 66.0 °F 29.99 in SW 0.5 mph 3.0 mph 72 % 0.00 in
23:29 75.6 °F 65.9 °F 29.99 in Calm     72 % 0.00 in
23:34 75.6 °F 66.7 °F 29.99 in Calm   1.2 mph 74 % 0.00 in
23:39 75.5 °F 66.6 °F 29.99 in South 0.3 mph 2.3 mph 74 % 0.00 in
23:44 75.5 °F 67.0 °F 29.99 in South 0.6 mph 2.3 mph 75 % 0.00 in
23:49 75.4 °F 66.9 °F 29.99 in Calm   1.2 mph 75 % 0.00 in
23:54 75.4 °F 66.9 °F 29.99 in Calm   2.3 mph 75 % 0.00 in
23:59 75.3 °F 67.6 °F 29.99 in SW 0.3 mph 1.0 mph 77 % 0.00 in
Crab Meadow Weather
Compliments of Weather Underground - 3 mb

Script developed by  Jim McMurry - jmcmurry@mwt.net Adapted for the template by  Wim van der Kuil - Leuven-Template.eu

Clouds: Mostly sunny and mostly clear indicate the same amount of cloud coverage - about 25 percent. Mostly sunny is used during the daytime, and mostly clear is used at night when there is no sun.